Regional Weather Roundup
Issued by NWS

Home | Current Version | Previous Version | Text Only | Print | Product List | Glossary Off
Versions: 1 2 3 4 5 6 7 8 9 10 11 12 13 14 15 16 17 18 19 20 21 22 23 24 25 26 27 28 29 30 31 32 33 34 35 36 37 38 39 40 41 42 43 44 45 46 47 48 49 50

173
ASUS43 KMPX 240810
RWRMN
WEATHER ROUNDUP FOR MINNESOTA
NATIONAL WEATHER SERVICE TWIN CITIES/CHANHASSEN MN
300 AM CDT MON APR 24 2017


NOTE: "FAIR" INDICATES FEW OR NO CLOUDS BELOW 12,000 FEET WITH NO
SIGNIFICANT WEATHER AND/OR OBSTRUCTIONS TO VISIBILITY. N/A MEANS
CURRENT SKY AND/OR WEATHER CONDITIONS ARE NOT AVAILABLE.

MNZ060>063-068>070-240900-
   Twin Cities Metro

CITY           SKY/WX    TMP DP  RH WIND       PRES   REMARKS
TWIN CITIES    CLOUDY    50  39  66 E3        29.84F
ST PAUL        PTCLDY    49  41  74 CALM      29.85F
CRYSTAL        CLOUDY    45  37  73 CALM      29.83F
BLAINE         CLOUDY    45  39  81 CALM      29.84F
LAKEVILLE      CLOUDY    54  34  47 S10       29.83F
EDEN PRAIRIE   MOCLDY    49  40  71 NE3       29.82F
SOUTH ST PAUL  CLOUDY    47  40  76 CALM      29.84F
LAKE ELMO      FAIR      45  39  81 E5        29.86F
$$
MNZ001>005-007-008-013>017-022>024-027-028-240900-
   Northwest Minnesota

CITY           SKY/WX    TMP DP  RH WIND       PRES   REMARKS
BEMIDJI        CLOUDY    33  27  79 E14G20    29.87F WCI  23
HALLOCK        CLOUDY    36  21  55 E16       29.91F
ROSEAU         CLOUDY    36  21  55 E14       29.96F
WARROAD        CLOUDY    36  21  55 E13G21    29.98F
THIEF RVR FALL MIX PCPN  32  30  92 E20       29.87F WCI  20
CROOKSTON      CLOUDY    36  30  80 E14       29.84F
FOSSTON        MOCLDY    34  28  80 E10G20    29.83F WCI  26
DETROIT LAKES  CLOUDY    34  28  80 SE15G23   29.79S WCI  24
MOORHEAD       CLOUDY    37  30  75 E12       29.76F
PARK RAPIDS    CLOUDY    33  22  63 E12       29.82F WCI  24
MAHNOMEN       FAIR      35  31  85 E15       29.80S WCI  25
$$
MNZ006-009>011-018-025>026-240900-
   North Central Minnesota

CITY           SKY/WX    TMP DP  RH WIND       PRES   REMARKS
BAUDETTE       LGT SNOW  31  28  89 E15       29.98F FOG     WCI  20
FLAG ISLAND    CLOUDY    34  16  47 E10       30.00F WCI  26
INTL FALLS     LGT SNOW  32  27  81 E10       30.00S WCI  24
WASKISH        DRIZZLE   32  30  93 E10       29.94F WCI  24
BIG FORK       CLOUDY    34  28  80 E7        29.93F WCI  28
LONGVILLE      CLOUDY    32  25  74 E7        29.86F WCI  26
GRAND RAPIDS   CLOUDY    32  25  75 E8G18     29.92F WCI  25
CRANE LAKE     FLURRIES  30  28  93 CALM      30.03F
ORR            DRIZZLE   30  28  93 MISG      29.95F
COOK           CLOUDY    30  27  86 E7        29.97F WCI  23
WALKER         CLOUDY    33  26  76 E15G23    29.86F WCI  23
$$
MNZ012-019>021-037-240900-
   Northeast Minnesota

CITY           SKY/WX    TMP DP  RH WIND       PRES   REMARKS
DULUTH         CLOUDY    31  27  85 E29G35    29.95F WCI  16
ELY            CLOUDY    28  25  86 E9        30.01F WCI  20
HIBBING        CLOUDY    30  25  81 E13       29.94F WCI  20
EVELETH        PTCLDY    32  24  71 E9G17     29.97F WCI  24
DULUTH HARBOR  CLOUDY    37  32  81 NE31G38   30.00F
TWO HARBORS    CLOUDY    34  28  80 NE12G24   30.00F WCI  25
SILVER BAY     CLOUDY    30  28  93 NE13G20   30.03F WCI  20
GRAND MARAIS     N/A     31  27  85 NE14G22   30.12F WCI  21
G MARAIS ARPRT MIX PCPN  25  19  80 E13       30.05F WCI  13
$$
MNZ029>031-032-039>041-046>048-054>057-064-240900-
   West Central Minnesota

CITY           SKY/WX    TMP DP  RH WIND       PRES   REMARKS
FERGUS FALLS   CLOUDY    37  30  75 E17G24    29.73F
WHEATON        CLOUDY    39  34  81 E15       29.71F
MORRIS         CLOUDY    39  34  81 E16       29.72F
ALEXANDRIA     CLOUDY    35  31  85 E16G22    29.79F WCI  25
ELBOW LAKE     FAIR      37  34  87 SE20G28   29.73F
WADENA         CLOUDY    30  25  80 E8G18     29.80F WCI  23
GLENWOOD       CLOUDY    36  34  93 E15       29.78F
APPLETON       CLOUDY    45  37  76 E14       29.71F
BENSON         CLOUDY    43  34  70 SE15      29.75F
ORTONVILLE     CLOUDY    45  37  76 E15       29.69F
MADISON        CLOUDY    54  37  54 SE7       29.70F
WILLMAR        FAIR      45  37  76 E12       29.78F
$$
MNZ033>034-036-042>043-049>051-058-059-240900-
   Central Minnesota

CITY           SKY/WX    TMP DP  RH WIND       PRES   REMARKS
ST CLOUD       PTCLDY    36  32  85 E8G17     29.83F
SAUK CENTRE    FAIR      35  32  88 E9        29.81F WCI  27
PAYNESVILLE    CLOUDY    38  34  84 E9        29.80F
AITKIN         PTCLDY    36  25  64 E8        29.87F
PINE RIVER     PTCLDY    32  27  80 E15G22    29.89F WCI  22
BRAINERD       PTCLDY    33  25  72 E9        29.86F WCI  25
STAPLES        CLOUDY    32  25  74 E8        29.82F WCI  25
LONG PRAIRIE   FAIR      32  30  93 NE7       29.81F WCI  26
LITTLE FALLS   CLOUDY    32  28  86 E3        29.84F
LITCHFIELD     CLOUDY    43  37  81 E7        29.81F
BUFFALO        CLOUDY    41  36  80 NE7       29.84F
MAPLE LAKE     PTCLDY    40  37  86 NE7       29.84F
HUTCHINSON     CLOUDY    44  39  84 CALM      29.82S
$$
MNZ037-044-045-052-053-240900-
   East Central Minnesota

CITY           SKY/WX    TMP DP  RH WIND       PRES   REMARKS
PRINCETON      PTCLDY    37  32  81 NE8       29.86F
MORA           CLOUDY    34  28  80 E3        29.89F
CAMBRIDGE      PTCLDY    39  30  70 NE6       29.85F
RUSH CITY      CLOUDY    35  31  85 NE7       29.88F WCI  29
MOOSE LAKE     CLOUDY    34  27  75 E12G17    29.90F WCI  25
HINCKLEY       FAIR      36  30  80 NE6       29.90F
CLOQUET        CLOUDY    32  27  80 E20G28    29.93F WCI  20
MCGREGOR       CLOUDY    34  28  80 E13G18    29.90F WCI  25
$$
MNZ071>073-080-081-089-090-097-098-240900-
   Southwest Minnesota

CITY           SKY/WX    TMP DP  RH WIND       PRES   REMARKS
MONTEVIDEO     CLOUDY    48  36  61 S7        29.73F
GRANITE FALLS  MOCLDY    54  36  51 SE10      29.74F
CANBY          CLOUDY    59  31  34 SW17G28   29.69S
MARSHALL       MOCLDY    57  32  38 S22       29.71F
REDWOOD FALLS  CLOUDY    52  33  48 S13       29.75F
OLIVIA         CLOUDY    54  34  47 SE6       29.76F
PIPESTONE      MOCLDY    50  30  46 S14       29.74F
WINDOM         CLOUDY    54  30  40 S13G20    29.79F
WORTHINGTON    PTCLDY    52  32  46 S16       29.78F
JACKSON        CLOUDY    50  32  50 S12       29.81F
TRACY          PTCLDY    56  33  41 S13G21    29.75F
SLAYTON        CLOUDY    52  32  46 S14       29.77F
$$
MNZ065>067-074>077-082>085-091>093-240900-
   South Central Minnesota

CITY           SKY/WX    TMP DP  RH WIND       PRES   REMARKS
MANKATO        MOCLDY    54  33  45 S10       29.83F
NEW ULM        MOCLDY    54  34  47 S13       29.79F
ST JAMES       CLOUDY    52  34  50 S14       29.81F
FAIRMONT       CLOUDY    49  35  58 S13       29.83F
GLENCOE        CLOUDY    46  42  86 CALM      29.81S
FARIBAULT      CLOUDY    54  36  50 S6        29.86S
OWATONNA       PTCLDY    54  34  47 S13       29.86F
WASECA         CLOUDY    55  34  44 S13       29.86F
ALBERT LEA     CLOUDY    52  32  46 S8        29.87F
$$
MNZ078>079-086>088-094>096-240900-
   Southeast Minnesota

CITY           SKY/WX    TMP DP  RH WIND       PRES   REMARKS
ROCHESTER      CLEAR     49  35  58 S10       29.89F
RED WING       CLOUDY    57  30  35 S5        29.86S
STANTON        CLOUDY    53  35  49 S8        29.83F
DODGE CENTER   PTCLDY    50  36  57 S12       29.88F
WINONA         CLEAR     50  36  57 SE6       29.92S
AUSTIN         PTCLDY    50  34  53 S6        29.89F
PRESTON        CLEAR     49  32  52 S8        29.92F
$$
ABBREVIATIONS USED IN REMARKS
   TC - TEMPERATURES IN CELSIUS
  WCI - WIND CHILL INDEX
   HX - HEAT INDEX
  VSB - VISIBILITY
$$




USA.gov is the U.S. government's official web portal to all federal, state and local government web resources and services.